Simultaneous Nadir Overpasses (SNOs) Predictions

Prediction of SNOs between METOP-B and TERRA Satellite Orbit:

Table of predicted SNOs for the next 14.0 days since TLE Epoch: 10/10/2015
Index Date (METOP-B) Time (METOP-B) Lat,Lon (METOP-B) SZA (METOP-B ) Date (TERRA) Time (TERRA) Lat,Lon (TERRA) SZA (TERRA ) Distance(km) Time Diff (sec)
1 10/11/2015 09:20:58 -81.32, -93.03 88.63 10/11/2015 09:21:48 -81.31, -93.06 88.61 0.97 50
2 10/11/2015 10:11:38 81.32, 74.69 91.44 10/11/2015 10:11:14 81.32, 74.71 91.42 0.82 24
3 10/14/2015 04:55:19 -81.32, -26.46 87.54 10/14/2015 04:56:06 -81.31, -26.64 87.55 3.32 47
4 10/14/2015 05:45:59 81.33, 141.25 92.52 10/14/2015 05:45:32 81.32, 141.10 92.49 2.77 27
5 10/17/2015 00:29:39 -81.32, 40.09 86.47 10/17/2015 00:30:22 -81.33, 40.07 86.45 0.52 43
6 10/17/2015 01:20:19 81.33,-152.21 93.59 10/17/2015 01:19:48 81.33,-152.21 93.58 0.22 31
7 10/19/2015 20:04:01 -81.32, 106.23 85.47 10/19/2015 20:04:40 -81.32, 106.31 85.45 1.45 39
8 10/19/2015 20:54:41 81.32, -86.10 94.59 10/19/2015 20:54:06 81.32, -85.99 94.58 1.88 35
9 10/22/2015 15:38:22 -81.32, 172.73 84.45 10/22/2015 15:38:57 -81.32, 172.85 84.42 2.02 35




NCC Satellite Simultaneous Nadir Overpasses (SNOs) Prediction Service
